星链-32302 (STARLINK-32302)

导读 | 豆包AI

STARLINK-32302是美国SpaceX星链计划的卫星,于2024年10月23日发射升空,属于星链低轨互联网星座的扩容卫星。它将为全球提供高速低延迟互联网服务,覆盖偏远地区并支持移动网络接入,进一步完善星链星座的服务能力,增强美国在低轨卫星通信领域的布局优势。

基本信息
目录编号:
61621
目录名称:
STARLINK-32302
国际标识:
2024-191A
轨道中心:
EARTH
卫星名称:
星链-32302
卫星全名:
星链-32302 (STARLINK-32302)
卫星状态:
在轨 (已飞行508 天)
发射日期:
2024-10-23 UTC
国别 :
美国 (US)
星等 :
--
轨道信息
数据来源 国际轨道数据 AOE轨道数据
星历时间 2026-03-14T21:20:26+0800
22小时前
查看轨道信息
2026-03-12T16:00:00+0800
3天前
查看轨道信息
半长轴 6861.18km 6861.198km
偏心率 0.0001192 0.000001
轨道倾角 43.001° 42.999°
近地点辐角 261.187° 69.753°
升交点赤经 126.761° 139.317°
平近点角 98.885° 293.696°
近地点 482.225km 483.054km
远地点 483.861km 483.068km
周期 94.267分钟 94.267分钟
每日圈数 15.275823 15.275762
详细信息
固有亮度:
5
最大亮度:
2.5
卫星平台:
Starlink V1.0
覆盖范围:
全球
运营商:
太空探索技术公司
运营商所在国:
美国
制造商(研发单位):
太空探索技术公司
制造商所在国:
美国
使用方式:
暂无
卫星简介
Starlink 计划是 SpaceX 推出的全球卫星互联网项目,通过发射低轨道卫星,为全球尤其是偏远地区提供高速、低延迟的互联网服务。自 2019 年起,Starlink 已部署数千颗卫星,旨在缩小全球数字鸿沟,推动互联网普及。该项目还为军事、航空等行业提供通信支持,带来广泛经济效益。
2D轨道图
3D轨道图
轨道高度分析图
轨道倾角分析图
轨道综合分析图
查看轨道综合分析图